• MPC Preparation (Info)

  • MPEC 2023-F207 : 2023 FE7

    The following Minor Planet Electronic Circular may be linked-to from your own Web pages, but must not otherwise be redistributed electronically.

    A form allowing access to any MPEC is at the bottom of this page.


    Read MPEC 2023-F206 Read MPEC 2023-F208


    M.P.E.C. 2023-F207                               Issued 2023 March 29, 10:56 UT
    
         The Minor Planet Electronic Circulars contain information on unusual
             minor planets, routine data on comets and natural satellites,
             and occasional editorial announcements.  They are published
        on behalf of Division F of the International Astronomical Union by the
              Minor Planet Center, Smithsonian Astrophysical Observatory,
                              Cambridge, MA 02138, U.S.A.
    			  
                 Prepared using the Tamkin Foundation Computer Network
    
                                  MPC@CFA.HARVARD.EDU
                URL https://www.minorplanetcenter.net/    ISSN 1523-6714
    
                                    2023 FE7                                 
    
    
    Observations:
         K23F07E*KC2023 03 27.46869015 05 00.654+29 31 07.25         21.16GVEF207I52
         K23F07E KC2023 03 27.47300115 05 05.363+29 31 26.11         21.33GVEF207I52
         K23F07E KC2023 03 27.47731715 05 10.115+29 31 44.90         21.19GVEF207I52
         K23F07E KC2023 03 27.47929815 05 12.113+29 31 52.97         21.30GVEF207I52
         K23F07E KC2023 03 27.49366315 05 27.798+29 32 54.56         21.12GVEF207I52
         K23F07E KC2023 03 27.49750915 05 32.021+29 33 11.41         21.14GVEF207I52
         K23F07E KC2023 03 27.49953715 05 34.242+29 33 19.98         21.25GVEF207I52
         K23F07E KC2023 03 27.50155615 05 36.449+29 33 28.30         20.76GVEF207I52
         K23F07E KC2023 03 28.47986215 25 03.709+30 42 34.88         21.14GVEF207I52
         K23F07E KC2023 03 28.48244015 25 06.870+30 42 45.11         21.04GVEF207I52
         K23F07E KC2023 03 28.48500115 25 09.912+30 42 55.33         21.17GVEF207I52
         K23F07E KC2023 03 28.48755415 25 13.080+30 43 04.87         20.40GVEF207I52
         K23F07E KC2023 03 29.31744415 43 28.362+31 35 50.39         21.71GVEF207I52
         K23F07E KC2023 03 29.32110915 43 33.280+31 36 04.36         20.46GVEF207I52
         K23F07E KC2023 03 29.32477215 43 38.122+31 36 18.32         21.36GVEF207I52
         K23F07E KC2023 03 29.32843015 43 43.039+31 36 32.11         20.41GVEF207I52
    
    Observer details:
    I52 Steward Observatory, Mt. Lemmon Station.  Observers R. A. Kowalski, J. B.
        Fazekas.  Measurers E. J. Christensen, D. Fay, J. B. Fazekas, D. C. Fuls,
        A. R. Gibbs, A. D. Grauer, H. Groeller, J. K. Hogan, R. A. Kowalski, S. M.
        Larson, G. J. Leonard, D. Rankin, R. L. Seaman, A. Serrano, F. C. Shelly,
        K. W. Wierzchos.  1.0-m prime focus + CCD.
    
    Orbital elements:
    2023 FE7                                                 Earth MOID = 0.0126 AU
    Epoch 2023 Feb. 25.0 TT = JDT 2460000.5                 Veres                   
    M 337.29188              (2000.0)            P               Q                  
    n   0.31681654     Peri.  121.70988     -0.47996447     +0.87555901             
    a   2.1310689      Node   119.51016     -0.82478606     -0.42896926             
    e   0.5777451      Incl.    3.62676     -0.29893489     -0.22222013             
    P   3.11           H   24.72          G   0.15           U   9                  
    Residuals in seconds of arc
    230327 I52  0.1+  0.1-    230327 I52  0.1-  0.2+    230329 I52  0.1-  0.1-
    230327 I52  0.4+  0.1+    230327 I52  0.1-  0.1-    230329 I52  0.2+  0.0
    230327 I52  1.2+  0.3+    230328 I52  0.0   0.1+    230329 I52  0.3-  0.1+
    230327 I52  0.9-  0.1-    230328 I52  0.4+  0.1+    230329 I52  0.2+  0.1+
    230327 I52  0.5-  0.2-    230328 I52  0.5-  0.1+
    230327 I52  0.2-  0.2+    230328 I52  0.3+  0.4-
    
    Ephemeris:
    2023 FE7                 a,e,i = 2.13, 0.58, 4                   q = 0.8999
    Date    TT    R. A. (2000) Decl.     Delta      r    Elong.  Phase     V
    2023 02 27    12 13 45.2 +09 58 36   0.3024  1.2729   156.3    18.2    23.6
    ...
    2023 03 14    12 55 57.2 +16 07 12   0.1727  1.1537   155.8    20.7    22.2
    ...
    2023 03 22    13 49 26.2 +22 54 20   0.1170  1.0943   145.2    31.3    21.6
    ...
    2023 03 28    15 15 17.1 +30 09 25   0.08625 1.0529   127.7    48.6    21.3
    2023 03 29    15 36 15.4 +31 16 35   0.08266 1.0462   123.7    52.5    21.3
    2023 03 30    15 59 22.9 +32 13 55   0.07966 1.0397   119.3    56.9    21.4
    ...
    2023 04 05    18 40 19.6 +31 12 30   0.07646 1.0029    89.9    85.7    22.2
    ...
    2023 04 13    21 00 26.4 +19 10 13   0.1071  0.9608    64.3   110.0    23.9
    ...
    2023 04 28    22 30 55.3 +07 28 00   0.2036  0.9096    56.3   112.9    25.4
    
    M. P. C. Staff               (C) Copyright 2023 MPC           M.P.E.C. 2023-F207
    


    Read MPEC 2023-F206 Read MPEC 2023-F208


    MPEC number:

    Enter an MPEC number in one of the following forms:

    • 1997-B01 (the full form)
    • J97B01 (the packed version of the full form)
    • B01 (the abbreviated form)